GW6173 Weather Reports


time (UTC)temp
C
wind
direction
speed
KPH
gust
KPH
rain 1hr
cm
rain 24hr
cm
rain mn
cm
humidity
%
barometer
mb
20260506191516 13 236 1.6 14.5 0.00 0.03 0.03 79 1021.2
20260506190014 13 195 8.0 14.5 0.00 0.03 0.03 80 1021.1
20260506184515 13 172 6.4 22.5 0.00 0.03 0.03 82 1021.0
20260506180015 12 228 6.4 11.3 0.00 0.03 0.03 89 1021.1
20260506174514 12 246 3.2 8.0 0.00 0.03 0.03 89 1021.2
20260506173016 12 213 6.4 16.1 0.00 0.03 0.03 88 1021.1
20260506170021 12 190 11.3 17.7 0.00 0.03 0.03 89 1020.9
20260506164518 12 174 9.7 16.1 0.00 0.03 0.03 90 1020.7
20260506163030 12 179 6.4 16.1 0.00 0.03 0.03 92 1020.7
20260506160020 11 167 11.3 17.7 0.00 0.03 0.03 94 1020.5
20260506154518 11 155 4.8 14.5 0.00 0.03 0.03 95 1020.3
20260506153016 11 105 0.0 3.2 0.00 0.03 0.03 96 1020.4
20260506151516 11 105 0.0 0.0 0.00 0.03 0.03 96 1020.4
20260506150016 11 105 0.0 1.6 0.00 0.03 0.03 96 1020.5
20260506144517 11 105 4.8 11.3 0.00 0.03 0.03 96 1019.7
20260506143018 10 321 3.2 6.4 0.03 0.03 0.03 96 1019.9
20260506141518 10 321 0.0 0.0 0.03 0.03 0.03 95 1020.2
20260506140017 10 321 0.0 4.8 0.03 0.03 0.03 95 1020.4
20260506134515 10 321 0.0 4.8 0.03 0.03 0.03 95 1020.1
20260506133012 10 321 3.2 8.0 0.00 0.00 0.00 95 1020.1
20260506131515 10 321 1.6 4.8 0.00 0.00 0.00 95 1019.6
20260506130015 11 321 0.0 3.2 0.00 0.00 0.00 95 1019.6
20260506124517 11 321 0.0 0.0 0.00 0.00 0.00 94 1019.4
20260506123017 11 321 0.0 0.0 0.00 0.00 0.00 94 1019.3
20260506121515 11 321 0.0 0.0 0.00 0.00 0.00 94 1019.2
20260506120018 11 321 0.0 0.0 0.00 0.00 0.00 93 1019.3
20260506111517 11 321 0.0 6.4 0.00 0.00 0.00 91 1019.1
20260506110016 11 321 0.0 6.4 0.00 0.00 0.00 90 1019.1
20260506104515 11 321 3.2 6.4 0.00 0.00 0.00 89 1018.9
20260506103020 11 321 4.8 6.4 0.00 0.00 0.00 88 1018.7
20260506101519 12 321 0.0 3.2 0.00 0.00 0.00 88 1018.6
20260506100018 12 321 0.0 4.8 0.00 0.00 0.00 88 1018.4
20260506091516 12 321 0.0 4.8 0.00 0.00 0.00 88 1018.3
20260506084517 12 321 0.0 4.8 0.00 0.00 0.00 88 1018.3
20260506073018 12 321 1.6 4.8 0.00 0.00 0.00 87 1017.6
20260506071519 12 321 1.6 4.8 0.00 0.00 0.00 86 1017.6
20260506061521 12 321 0.0 6.4 0.00 0.00 0.00 85 1017.2
20260506044520 13 308 4.8 14.5 0.00 0.00 0.00 85 1016.9
20260506043015 13 315 6.4 14.5 0.00 0.00 0.00 85 1016.7
20260506041517 13 305 8.0 16.1 0.00 0.00 0.00 84 1016.5
20260506040037 13 322 11.3 20.9 0.00 0.00 0.00 83 1016.3
20260506034528 14 321 12.9 22.5 0.00 0.00 0.00 81 1016.1
20260506033010 15 309 12.9 19.3 0.00 0.00 0.00 79 1016.0
20260506031529 16 304 11.3 17.7 0.00 0.00 0.00 79 1015.8
20260506024520 17 317 6.4 16.1 0.00 0.00 0.00 76 1015.3
20260506023012 17 342 4.8 8.0 0.00 0.00 0.00 74 1015.2
20260506021514 17 329 3.2 12.9 0.00 0.00 0.00 74 1015.2
20260506014515 18 16 1.6 8.0 0.00 0.00 0.00 72 1015.2
20260506013014 18 59 0.0 1.6 0.00 0.00 0.00 72 1015.2
20260506011513 18 59 1.6 4.8 0.00 0.00 0.00 73 1015.3
20260506010015 18 59 4.8 9.7 0.00 0.00 0.00 73 1015.2
20260506004522 18 269 0.0 11.3 0.00 0.00 0.00 72 1015.3
20260506003016 17 60 0.0 4.8 0.00 0.00 0.00 76 1015.5
20260506001515 17 50 3.2 9.7 0.00 0.00 0.00 76 1015.6
20260506000014 17 15 8.0 12.9 0.00 0.00 0.00 75 1015.8
20260505234513 16 10 6.4 14.5 0.00 0.00 0.00 76 1016.0
20260505231524 16 336 6.4 14.5 0.00 0.00 0.00 77 1016.2
20260505230022 16 224 0.0 8.0 0.00 0.00 0.00 81 1016.2
20260505224512 16 271 1.6 8.0 0.00 0.00 0.00 77 1016.4
20260505221516 15 223 0.0 4.8 0.00 0.00 0.00 80 1016.7
20260505220015 15 224 3.2 11.3 0.00 0.00 0.00 80 1016.7
20260505214513 15 252 0.0 11.3 0.00 0.00 0.00 80 1016.7
20260505211512 15 216 4.8 14.5 0.00 0.00 0.00 82 1016.8
20260505210020 15 261 6.4 14.5 0.00 0.00 0.00 80 1016.9
20260505204512 15 257 3.2 12.9 0.00 0.00 0.00 82 1017.0
20260505203011 15 274 4.8 12.9 0.00 0.00 0.00 83 1016.9
20260505201511 14 246 6.4 14.5 0.00 0.00 0.00 83 1016.9
20260505200033 14 244 4.8 12.9 0.00 0.00 0.00 83 1017.0